Meath Environmental Platform

Observations for Trim Patrick St

Time AQI Temp °C Hum % Pres Pa CO μg/m³ H₂S μg/m³ NO μg/m³ NO₂ μg/m³ O₃ μg/m³ SO₂ μg/m³ PM1 μg/m³ PM2.5 μg/m³ PM10 μg/m³
Sunday 9 August 2026
05:14 2 18.5 68 80,728 0.04 1.05 2.1 13.01 39.99 0.44 2.86 7.42 8.16
05:09 2 18.5 68 80,081 0.03 2.51 2.17 14.77 39.6 0.28 4.57 9.61 10.58
05:08 2 18.5 68 79,933 0.05 2.99 2.11 23.21 47.27 0.17 3.71 8.15 8.97
05:03 2 18.6 68 79,609 0.03 1.38 2.13 15.2 49.47 0 3.71 7.43 8.18
05:02 2 18.6 68 79,560 0.04 1.49 2.13 13.33 43.22 0 3.71 7.45 8.19
05:01 2 18.6 68 79,564 0.02 1.91 2.03 20.16 45.82 0 4.57 8.17 8.99
05:00 2 18.6 68 79,538 0.03 0 1.88 12.59 40.14 0.45 4.57 8.17 8.99
04:59 2 18.6 68 79,554 0.02 0 1.76 11.8 41.83 0.29 2.86 7.45 8.19
04:58 2 18.6 68 79,575 0.03 0.31 1.87 13.56 43.17 0 3.71 7.44 8.18
04:57 2 18.6 68 79,587 0.02 0.31 1.84 15.55 41.36 0 2.86 6.72 7.39
04:56 2 18.6 68 79,585 0.02 0 2.08 10.32 43.21 0 3.71 7.45 8.19
04:55 2 18.6 68 79,595 0.02 0.68 2.05 16.28 41.57 0 2.86 6.72 7.39
04:54 2 18.6 68 79,536 0.02 0.26 2.16 11.69 40.81 0.15 2 6 6.6
04:53 2 18.6 68 79,487 0.01 0.65 2.12 16.3 44.42 0 2.86 6.73 7.4
04:51 2 18.6 68 79,337 0.01 0 2.19 12.36 38.13 0 2.86 6 6.6
04:50 2 18.6 68 79,325 0.01 1.33 2.18 13.15 47.61 0 3.71 7.45 8.19
04:49 2 18.6 68 79,322 0.01 1.17 2.17 16.29 51.46 0 4.57 8.17 8.99
04:48 2 18.6 68 79,347 0.02 1.28 2.15 13.9 52.52 0 2 6.73 7.4
04:47 2 18.6 68 79,355 0.02 0 2.08 12.89 39.06 0 3.71 7.45 8.2
04:46 2 18.6 68 79,347 0.01 0 1.96 12.51 38.93 0 2.86 6.73 7.4